Regional Weather Roundup
Issued by NWS

Home | Current Version | Previous Version | Graphics & Text | Print | Product List | Glossary On
Versions: 1 2 3 4 5 6 7 8 9 10 11 12 13 14 15 16 17 18 19 20 21 22 23 24 25 26 27 28 29 30 31 32 33 34 35 36 37 38 39 40 41 42 43 44 45 46 47 48 49 50
000
ASUS45 KABQ 260701
RWRNM
NEW MEXICO REGIONAL WEATHER ROUNDUP
NATIONAL WEATHER SERVICE ALBUQUERQUE NM
1200 AM MST SUN FEB 26 2017

NOTE: "FAIR" MEANS FEW OR NO CLOUDS BELOW 12,000 FEET AGL WITH NO
       SIGNIFICANT WEATHER OR OBSTRUCTIONS TO VISION.

      THIS PRODUCT IS RELEASED AS TWO VERSIONS.  ONE VERSION NEAR
      THE TOP OF THE HOUR CONTAINING PRELIMINARY DATA FROM ALBUQUERQUE
      AND OTHER STATIONS.  A FINAL VERSION WITH ADDITIONAL DATA IS
      ISSUED ABOUT 10 MINUTES AFTER THE HOUR.

NMZ501-503-504-510>518-260800-
NORTHWEST PLATEAU/NORTHCENTRAL MOUNTAINS

CITY           SKY/WX    TMP DP  RH WIND       PRES   REMARKS
FARMINGTON     CLOUDY    29  11  47 CALM      29.87F
LOS ALAMOS     FAIR      28   4  35 SW5       29.87S WCI  23
SANTA FE       FAIR      26   5  40 N5        29.85F WCI  20
TAOS           FAIR      21   0  39 CALM      29.85S
ANGEL FIRE     MOCLDY    22   3  43 S7        29.83S WCI  14

$$
NMZ402-403-502-505>509-260800-
WESTCENTRAL MOUNTAINS/SOUTHWEST MOUNTAINS

CITY           SKY/WX    TMP DP  RH WIND       PRES   REMARKS
GALLUP         CLOUDY    34  18  52 W21       29.93R WCI  22
GRANTS         CLOUDY    37  10  32 W21G31    29.92F WCI  26
SILVER CITY    FAIR      39   8  27 NW12      29.96F WCI  32

$$
NMZ407-409-411-412-260800-
SOUTHERN DESERTS

CITY           SKY/WX    TMP DP  RH WIND       PRES   REMARKS
DEMING         FAIR      41  12  30 SW8       29.95S
LAS CRUCES     FAIR      39   7  26 CALM      29.95S
HOLLOMAN AFB   CLOUDY    53   3  13 SW10      29.96S
ALAMOGORDO     FAIR      48   9  20 SE6       29.93F
T OR C         FAIR      43   2  18 W8        29.91S

$$
NMZ519>523-260800-
CENTRAL VALLEYS/CENTRAL HIGHLANDS

CITY           SKY/WX    TMP DP  RH WIND       PRES   REMARKS
ALBUQUERQUE    MOCLDY    40   5  23 W5        29.89F
DOUBLE EAGLE   FAIR      29   7  38 W9        29.88S WCI  21
MORIARTY ARPT  FAIR      30   3  32 SW9       29.89S WCI  21
CLINES CORNERS CLOUDY    32   2  27 W15       29.87F WCI  22
BELEN          FAIR      37   4  24 W3        29.90S
SOCORRO        FAIR      45   3  17 NW14      29.89F

$$
NMZ524>526-539-540-260800-
SOUTHCENTRAL MOUNTAINS

CITY           SKY/WX    TMP DP  RH WIND       PRES   REMARKS
RUIDOSO        NOT AVBL

$$
NMZ527>531-260800-
NORTHEAST HIGHLANDS/NORTHEAST PLAINS

CITY           SKY/WX    TMP DP  RH WIND       PRES   REMARKS
LAS VEGAS      CLOUDY    29   5  36 S12       29.82F WCI  19
RATON          FAIR      25   1  35 S6        29.79F WCI  18
CLAYTON        FAIR      38  15  39 N7        29.79S WCI  33

$$
NMZ532>537-260800-
EASTCENTRAL PLAINS

CITY           SKY/WX    TMP DP  RH WIND       PRES   REMARKS
TUCUMCARI      FAIR      40  16  37 S6        29.81F
CANNON AFB     NOT AVBL
CLOVIS AIRPORT FAIR      30  19  64 S7        29.83F WCI  23

$$
NMZ028-029-538-260800-
SOUTHEAST PLAINS

CITY           SKY/WX    TMP DP  RH WIND       PRES   REMARKS
ROSWELL        FAIR      43  15  32 S13         N/A
ARTESIA        FAIR      41  18  38 S7        29.86S
CARLSBAD       FAIR      40  19  43 SW3       29.85F
HOBBS          FAIR      41  25  52 S12       29.88F


$$



USA.gov is the U.S. government's official web portal to all federal, state and local government web resources and services.